Time,TemperatureF,DewpointF,PressureIn,WindDirection,WindDirectionDegrees,WindSpeedMPH,WindSpeedGustMPH,Humidity,HourlyPrecipIn,Conditions,Clouds,dailyrainin,SolarRadiationWatts/m^2,SoftwareType,DateUTC
2013-07-02 00:02:00,74.0,70.9,30.11,SW,220,3.0,6.0,90,0.00,,,0.09,0,Wunderground v.1.15,2013-07-02 04:02:00,
2013-07-02 00:06:00,74.0,70.9,30.11,SSW,200,3.0,7.0,90,0.00,,,0.09,0,Wunderground v.1.15,2013-07-02 04:06:00,
2013-07-02 00:10:00,74.0,70.9,30.11,South,177,4.0,7.0,90,0.00,,,0.09,0,Wunderground v.1.15,2013-07-02 04:10:00,
2013-07-02 00:14:00,74.0,70.9,30.11,SSW,197,3.0,7.0,90,0.00,,,0.09,0,Wunderground v.1.15,2013-07-02 04:14:00,
2013-07-02 00:18:00,74.0,70.9,30.11,SSW,209,3.0,7.0,90,0.00,,,0.09,0,Wunderground v.1.15,2013-07-02 04:18:00,
2013-07-02 00:24:00,74.0,70.9,30.11,SSW,205,3.0,7.0,90,0.00,,,0.09,0,Wunderground v.1.15,2013-07-02 04:24:00,
2013-07-02 00:30:00,74.0,70.9,30.11,SE,126,3.0,7.0,90,0.00,,,0.09,0,Wunderground v.1.15,2013-07-02 04:30:00,
2013-07-02 00:36:00,74.0,70.9,30.11,South,189,3.0,7.0,90,0.00,,,0.09,0,Wunderground v.1.15,2013-07-02 04:36:00,
2013-07-02 00:42:00,74.0,70.9,30.11,SW,215,3.0,3.0,90,0.00,,,0.09,0,Wunderground v.1.15,2013-07-02 04:42:00,
2013-07-02 00:48:00,74.0,70.9,30.11,South,180,3.0,7.0,90,0.00,,,0.09,0,Wunderground v.1.15,2013-07-02 04:48:00,
2013-07-02 00:54:00,73.9,70.8,30.11,SSW,211,3.0,7.0,90,0.00,,,0.09,0,Wunderground v.1.15,2013-07-02 04:54:00,
2013-07-02 01:00:00,73.9,71.1,30.11,SSW,194,3.0,3.0,91,0.00,,,0.09,0,Wunderground v.1.15,2013-07-02 05:00:00,
2013-07-02 01:06:00,73.9,71.1,30.11,South,179,2.0,7.0,91,0.00,,,0.09,0,Wunderground v.1.15,2013-07-02 05:06:00,
2013-07-02 01:12:00,73.9,71.1,30.11,South,175,3.0,6.0,91,0.00,,,0.09,0,Wunderground v.1.15,2013-07-02 05:12:00,
2013-07-02 01:18:00,73.9,71.1,30.11,SW,219,3.0,7.0,91,0.00,,,0.09,0,Wunderground v.1.15,2013-07-02 05:18:00,
2013-07-02 01:24:00,73.9,71.1,30.11,SSW,192,3.0,6.0,91,0.00,,,0.09,0,Wunderground v.1.15,2013-07-02 05:24:00,
2013-07-02 01:30:00,73.9,71.1,30.11,SSW,209,4.0,7.0,91,0.00,,,0.09,0,Wunderground v.1.15,2013-07-02 05:30:00,
2013-07-02 01:36:00,73.9,71.1,30.11,SSW,208,3.0,7.0,91,0.00,,,0.09,0,Wunderground v.1.15,2013-07-02 05:36:00,
2013-07-02 01:42:00,73.9,71.1,30.11,South,176,3.0,4.0,91,0.00,,,0.09,0,Wunderground v.1.15,2013-07-02 05:42:00,
2013-07-02 01:48:00,73.9,71.1,30.11,SSW,209,3.0,6.0,91,0.00,,,0.09,0,Wunderground v.1.15,2013-07-02 05:48:00,
2013-07-02 01:54:00,73.9,71.1,30.11,SE,142,2.0,6.0,91,0.00,,,0.09,0,Wunderground v.1.15,2013-07-02 05:54:00,
2013-07-02 02:00:00,73.9,71.1,30.11,SSE,165,1.0,1.0,91,0.00,,,0.09,0,Wunderground v.1.15,2013-07-02 06:00:00,
2013-07-02 02:06:00,74.0,70.9,30.12,South,189,2.0,6.0,90,0.00,,,0.09,0,Wunderground v.1.15,2013-07-02 06:06:00,
2013-07-02 02:12:00,74.0,70.9,30.12,SSW,195,3.0,6.0,90,0.00,,,0.09,0,Wunderground v.1.15,2013-07-02 06:12:00,
2013-07-02 02:18:00,74.0,70.9,30.12,South,169,3.0,6.0,90,0.00,,,0.09,0,Wunderground v.1.15,2013-07-02 06:18:00,
2013-07-02 02:24:00,74.0,70.9,30.12,SW,227,2.0,6.0,90,0.00,,,0.09,0,Wunderground v.1.15,2013-07-02 06:24:00,
2013-07-02 02:30:00,74.2,71.1,30.12,South,189,2.0,6.0,90,0.00,,,0.09,0,Wunderground v.1.15,2013-07-02 06:30:00,
2013-07-02 02:36:00,74.2,71.1,30.12,South,187,3.0,6.0,90,0.00,,,0.09,0,Wunderground v.1.15,2013-07-02 06:36:00,
2013-07-02 02:42:00,74.2,70.7,30.12,SSE,157,2.0,6.0,89,0.00,,,0.09,0,Wunderground v.1.15,2013-07-02 06:42:00,
2013-07-02 02:48:00,74.2,70.7,30.12,South,187,3.0,7.0,89,0.00,,,0.09,0,Wunderground v.1.15,2013-07-02 06:48:00,
2013-07-02 02:54:00,74.2,70.7,30.12,South,186,3.0,6.0,89,0.00,,,0.09,0,Wunderground v.1.15,2013-07-02 06:54:00,
2013-07-02 03:00:00,74.2,70.7,30.12,SSW,206,2.0,6.0,89,0.00,,,0.09,0,Wunderground v.1.15,2013-07-02 07:00:00,
2013-07-02 03:06:00,74.2,70.7,30.12,South,174,2.0,6.0,89,0.00,,,0.09,0,Wunderground v.1.15,2013-07-02 07:06:00,
2013-07-02 03:12:00,74.2,70.7,30.12,SSW,213,2.0,6.0,89,0.00,,,0.09,0,Wunderground v.1.15,2013-07-02 07:12:00,
2013-07-02 03:18:00,74.2,70.7,30.11,SSW,194,2.0,6.0,89,0.00,,,0.09,0,Wunderground v.1.15,2013-07-02 07:18:00,
2013-07-02 03:24:00,74.4,70.9,30.11,SSW,207,3.0,6.0,89,0.00,,,0.09,0,Wunderground v.1.15,2013-07-02 07:24:00,
2013-07-02 03:30:00,74.4,70.9,30.11,SSW,197,2.0,6.0,89,0.00,,,0.09,0,Wunderground v.1.15,2013-07-02 07:30:00,
2013-07-02 03:36:00,74.4,70.9,30.11,South,170,3.0,6.0,89,0.00,,,0.09,0,Wunderground v.1.15,2013-07-02 07:36:00,
2013-07-02 03:42:00,74.4,70.9,30.11,WSW,238,3.0,6.0,89,0.00,,,0.09,0,Wunderground v.1.15,2013-07-02 07:42:00,
2013-07-02 03:48:00,74.4,70.9,30.12,SSW,195,2.0,6.0,89,0.00,,,0.09,0,Wunderground v.1.15,2013-07-02 07:48:00,
2013-07-02 03:54:00,74.4,70.9,30.12,SSW,192,3.0,6.0,89,0.00,,,0.09,0,Wunderground v.1.15,2013-07-02 07:54:00,
2013-07-02 04:00:00,74.4,70.9,30.12,SSW,211,4.0,4.0,89,0.00,,,0.09,0,Wunderground v.1.15,2013-07-02 08:00:00,
2013-07-02 04:06:00,74.4,70.9,30.12,SSW,197,4.0,6.0,89,0.00,,,0.09,0,Wunderground v.1.15,2013-07-02 08:06:00,
2013-07-02 04:12:00,74.4,70.9,30.12,SW,219,3.0,6.0,89,0.00,,,0.09,0,Wunderground v.1.15,2013-07-02 08:12:00,
2013-07-02 04:18:00,74.4,70.9,30.12,SSW,206,1.0,6.0,89,0.00,,,0.09,0,Wunderground v.1.15,2013-07-02 08:18:00,
2013-07-02 04:24:00,74.4,70.9,30.12,SSW,205,1.0,6.0,89,0.00,,,0.09,0,Wunderground v.1.15,2013-07-02 08:24:00,
2013-07-02 04:30:00,74.4,70.9,30.12,SSW,198,2.0,2.0,89,0.00,,,0.09,0,Wunderground v.1.15,2013-07-02 08:30:00,
2013-07-02 04:36:00,74.4,70.9,30.13,South,178,3.0,6.0,89,0.00,,,0.09,0,Wunderground v.1.15,2013-07-02 08:36:00,
2013-07-02 04:42:00,74.4,70.9,30.13,SW,216,3.0,6.0,89,0.00,,,0.09,0,Wunderground v.1.15,2013-07-02 08:42:00,
2013-07-02 04:48:00,74.2,70.7,30.13,South,181,2.0,6.0,89,0.00,,,0.09,0,Wunderground v.1.15,2013-07-02 08:48:00,
2013-07-02 04:54:00,74.2,70.7,30.13,SSW,196,2.0,6.0,89,0.00,,,0.09,0,Wunderground v.1.15,2013-07-02 08:54:00,
2013-07-02 05:00:00,74.2,71.1,30.13,SSW,194,2.0,2.0,90,0.00,,,0.09,0,Wunderground v.1.15,2013-07-02 09:00:00,
2013-07-02 05:06:00,74.2,71.1,30.13,SSW,195,2.0,6.0,90,0.00,,,0.09,0,Wunderground v.1.15,2013-07-02 09:06:00,
2013-07-02 05:12:00,74.0,70.9,30.13,SSW,203,2.0,5.0,90,0.00,,,0.09,0,Wunderground v.1.15,2013-07-02 09:12:00,
2013-07-02 05:18:00,74.0,70.9,30.14,SSW,197,3.0,5.0,90,0.00,,,0.09,0,Wunderground v.1.15,2013-07-02 09:18:00,
2013-07-02 05:24:00,74.0,70.9,30.14,South,188,2.0,6.0,90,0.00,,,0.00,0,Wunderground v.1.15,2013-07-02 09:24:00,
2013-07-02 05:30:00,74.0,70.9,30.14,South,175,3.0,6.0,90,0.00,,,0.00,0,Wunderground v.1.15,2013-07-02 09:30:00,
2013-07-02 05:36:00,74.0,70.9,30.15,SW,215,3.0,6.0,90,0.00,,,0.00,0,Wunderground v.1.15,2013-07-02 09:36:00,
2013-07-02 05:42:00,74.2,71.1,30.15,South,183,3.0,5.0,90,0.00,,,0.00,7,Wunderground v.1.15,2013-07-02 09:42:00,
2013-07-02 05:48:00,74.2,71.4,30.15,SSW,202,3.0,5.0,91,0.00,,,0.00,11,Wunderground v.1.15,2013-07-02 09:48:00,
2013-07-02 05:54:00,74.2,71.1,30.15,SE,140,2.0,3.0,90,0.00,,,0.00,14,Wunderground v.1.15,2013-07-02 09:54:00,
2013-07-02 06:00:00,74.2,71.4,30.15,SSW,200,2.0,2.0,91,0.00,,,0.00,21,Wunderground v.1.15,2013-07-02 10:00:00,
2013-07-02 06:06:00,74.4,71.6,30.14,South,175,1.0,2.0,91,0.00,,,0.00,28,Wunderground v.1.15,2013-07-02 10:06:00,
2013-07-02 06:12:00,74.4,71.6,30.14,SSE,167,1.0,2.0,91,0.00,,,0.00,40,Wunderground v.1.15,2013-07-02 10:12:00,
2013-07-02 06:18:00,74.4,71.6,30.14,SSW,198,2.0,5.0,91,0.00,,,0.00,37,Wunderground v.1.15,2013-07-02 10:18:00,
2013-07-02 06:24:00,74.4,71.6,30.14,SSW,201,2.0,6.0,91,0.00,,,0.00,28,Wunderground v.1.15,2013-07-02 10:24:00,
2013-07-02 06:30:00,74.6,71.8,30.14,SW,227,2.0,3.0,91,0.00,,,0.00,26,Wunderground v.1.15,2013-07-02 10:30:00,
2013-07-02 06:36:00,74.6,71.8,30.15,South,181,2.0,4.0,91,0.00,,,0.00,25,Wunderground v.1.15,2013-07-02 10:36:00,
2013-07-02 06:42:00,74.6,71.8,30.15,SSW,211,2.0,2.0,91,0.00,,,0.00,23,Wunderground v.1.15,2013-07-02 10:42:00,
2013-07-02 06:48:00,74.6,71.5,30.16,SSW,200,2.0,4.0,90,0.00,,,0.00,23,Wunderground v.1.15,2013-07-02 10:48:00,
2013-07-02 06:54:00,74.6,71.5,30.16,SSW,196,2.0,6.0,90,0.00,,,0.00,28,Wunderground v.1.15,2013-07-02 10:54:00,
2013-07-02 07:00:00,74.7,71.6,30.16,South,187,3.0,3.0,90,0.00,,,0.00,39,Wunderground v.1.15,2013-07-02 11:00:00,
2013-07-02 07:06:00,74.7,71.6,30.17,SSW,192,3.0,6.0,90,0.00,,,0.00,26,Wunderground v.1.15,2013-07-02 11:06:00,
2013-07-02 07:12:00,74.7,71.6,30.17,South,190,2.0,6.0,90,0.00,,,0.00,46,Wunderground v.1.15,2013-07-02 11:12:00,
2013-07-02 07:18:00,74.7,71.6,30.16,South,179,1.0,6.0,90,0.00,,,0.00,69,Wunderground v.1.15,2013-07-02 11:18:00,
2013-07-02 07:24:00,74.9,71.8,30.16,South,173,1.0,6.0,90,0.00,,,0.00,60,Wunderground v.1.15,2013-07-02 11:24:00,
2013-07-02 07:30:00,74.9,71.8,30.16,South,186,2.0,6.0,90,0.00,,,0.00,63,Wunderground v.1.15,2013-07-02 11:30:00,
2013-07-02 07:36:00,74.9,71.8,30.17,South,189,2.0,6.0,90,0.00,,,0.00,74,Wunderground v.1.15,2013-07-02 11:36:00,
2013-07-02 07:42:00,75.1,71.6,30.17,South,175,2.0,5.0,89,0.00,,,0.00,77,Wunderground v.1.15,2013-07-02 11:42:00,
2013-07-02 07:48:00,75.1,71.6,30.17,South,186,3.0,6.0,89,0.00,,,0.00,81,Wunderground v.1.15,2013-07-02 11:48:00,
2013-07-02 07:54:00,75.1,72.0,30.17,SSW,193,3.0,6.0,90,0.00,,,0.00,105,Wunderground v.1.15,2013-07-02 11:54:00,
2013-07-02 08:00:00,75.1,71.6,30.17,South,182,3.0,3.0,89,0.00,,,0.00,97,Wunderground v.1.15,2013-07-02 12:00:00,
2013-07-02 08:06:00,75.3,71.8,30.17,SSW,197,3.0,6.0,89,0.00,,,0.00,123,Wunderground v.1.15,2013-07-02 12:06:00,
2013-07-02 08:12:00,75.3,71.8,30.17,South,189,4.0,8.0,89,0.00,,,0.00,139,Wunderground v.1.15,2013-07-02 12:12:00,
2013-07-02 08:18:00,75.4,71.6,30.17,SSW,200,3.0,8.0,88,0.00,,,0.00,149,Wunderground v.1.15,2013-07-02 12:18:00,
2013-07-02 08:24:00,75.6,71.5,30.17,WSW,247,2.0,5.0,87,0.00,,,0.00,121,Wunderground v.1.15,2013-07-02 12:24:00,
2013-07-02 08:30:00,75.8,71.7,30.17,SSW,202,3.0,3.0,87,0.00,,,0.00,109,Wunderground v.1.15,2013-07-02 12:30:00,
2013-07-02 08:36:00,76.0,72.2,30.17,South,177,1.0,6.0,88,0.00,,,0.00,113,Wunderground v.1.15,2013-07-02 12:36:00,
2013-07-02 08:42:00,76.0,71.8,30.17,SW,221,1.0,6.0,87,0.00,,,0.00,135,Wunderground v.1.15,2013-07-02 12:42:00,
2013-07-02 08:48:00,76.1,71.9,30.17,SSW,210,1.0,6.0,87,0.00,,,0.00,174,Wunderground v.1.15,2013-07-02 12:48:00,
2013-07-02 08:54:00,76.3,71.8,30.17,SSW,200,1.0,6.0,86,0.00,,,0.00,216,Wunderground v.1.15,2013-07-02 12:54:00,
2013-07-02 09:00:00,76.5,72.0,30.17,SSW,206,1.0,6.0,86,0.00,,,0.00,255,Wunderground v.1.15,2013-07-02 13:00:00,
2013-07-02 09:06:00,76.8,72.3,30.17,SE,136,2.0,6.0,86,0.00,,,0.00,230,Wunderground v.1.15,2013-07-02 13:06:00,
2013-07-02 09:12:00,76.8,71.6,30.17,SSW,199,2.0,9.0,84,0.00,,,0.00,200,Wunderground v.1.15,2013-07-02 13:12:00,
2013-07-02 09:18:00,77.0,71.8,30.17,SSW,209,3.0,9.0,84,0.00,,,0.00,213,Wunderground v.1.15,2013-07-02 13:18:00,
2013-07-02 09:24:00,77.2,72.0,30.17,SW,214,2.0,5.0,84,0.00,,,0.00,223,Wunderground v.1.15,2013-07-02 13:24:00,
2013-07-02 09:30:00,77.4,71.8,30.17,SSW,194,2.0,5.0,83,0.00,,,0.00,253,Wunderground v.1.15,2013-07-02 13:30:00,
2013-07-02 09:36:00,77.7,72.1,30.17,South,184,2.0,5.0,83,0.00,,,0.00,262,Wunderground v.1.15,2013-07-02 13:36:00,
2013-07-02 09:42:00,77.7,71.8,30.17,SSW,199,1.0,6.0,82,0.00,,,0.00,216,Wunderground v.1.15,2013-07-02 13:42:00,
2013-07-02 09:48:00,77.9,72.0,30.17,South,188,2.0,6.0,82,0.00,,,0.00,172,Wunderground v.1.15,2013-07-02 13:48:00,
2013-07-02 09:54:00,77.9,72.0,30.17,SSW,205,2.0,5.0,82,0.00,,,0.00,308,Wunderground v.1.15,2013-07-02 13:54:00,
2013-07-02 10:00:00,78.1,71.8,30.17,SSW,198,4.0,11.0,81,0.00,,,0.00,343,Wunderground v.1.15,2013-07-02 14:00:00,
2013-07-02 10:06:00,78.6,72.3,30.17,South,186,3.0,11.0,81,0.00,,,0.00,350,Wunderground v.1.15,2013-07-02 14:06:00,
2013-07-02 10:12:00,78.8,71.7,30.17,SSE,164,3.0,4.0,79,0.00,,,0.00,469,Wunderground v.1.15,2013-07-02 14:12:00,
2013-07-02 10:18:00,79.0,72.3,30.16,South,178,4.0,7.0,80,0.00,,,0.00,455,Wunderground v.1.15,2013-07-02 14:18:00,
2013-07-02 10:24:00,79.2,72.1,30.16,SSE,151,3.0,4.0,79,0.00,,,0.00,269,Wunderground v.1.15,2013-07-02 14:24:00,
2013-07-02 10:30:00,79.2,72.1,30.16,SSW,201,3.0,3.0,79,0.00,,,0.00,262,Wunderground v.1.15,2013-07-02 14:30:00,
2013-07-02 10:36:00,79.2,71.7,30.17,SSW,197,3.0,6.0,78,0.00,,,0.00,190,Wunderground v.1.15,2013-07-02 14:36:00,
2013-07-02 10:42:00,79.2,72.1,30.17,SSW,207,3.0,4.0,79,0.00,,,0.00,230,Wunderground v.1.15,2013-07-02 14:42:00,
2013-07-02 10:48:00,79.6,72.1,30.17,SSE,168,2.0,4.0,78,0.00,,,0.00,190,Wunderground v.1.15,2013-07-02 14:48:00,
2013-07-02 10:54:00,79.2,71.7,30.17,South,191,4.0,8.0,78,0.00,,,0.00,165,Wunderground v.1.15,2013-07-02 14:54:00,
2013-07-02 11:00:00,79.2,72.1,30.17,South,186,4.0,4.0,79,0.00,,,0.00,246,Wunderground v.1.15,2013-07-02 15:00:00,
2013-07-02 11:06:00,79.2,71.7,30.17,SW,233,2.0,9.0,78,0.00,,,0.00,413,Wunderground v.1.15,2013-07-02 15:06:00,
2013-07-02 11:12:00,79.9,72.0,30.17,SSW,194,4.0,9.0,77,0.00,,,0.00,587,Wunderground v.1.15,2013-07-02 15:12:00,
2013-07-02 11:18:00,80.3,72.0,30.17,WSW,244,4.0,9.0,76,0.00,,,0.00,385,Wunderground v.1.15,2013-07-02 15:18:00,
2013-07-02 11:24:00,80.1,71.8,30.17,West,259,4.0,9.0,76,0.00,,,0.00,207,Wunderground v.1.15,2013-07-02 15:24:00,
2013-07-02 11:30:00,80.1,71.8,30.17,South,175,4.0,9.0,76,0.00,,,0.00,264,Wunderground v.1.15,2013-07-02 15:30:00,
2013-07-02 11:36:00,79.8,71.6,30.17,SW,223,4.0,9.0,76,0.00,,,0.00,251,Wunderground v.1.15,2013-07-02 15:36:00,
2013-07-02 11:42:00,79.8,71.9,30.17,SW,219,5.0,9.0,77,0.00,,,0.00,394,Wunderground v.1.15,2013-07-02 15:42:00,
2013-07-02 11:48:00,80.1,71.8,30.17,South,177,3.0,9.0,76,0.00,,,0.00,434,Wunderground v.1.15,2013-07-02 15:48:00,
2013-07-02 11:54:00,80.3,71.6,30.17,South,177,4.0,9.0,75,0.00,,,0.00,373,Wunderground v.1.15,2013-07-02 15:54:00,
2013-07-02 12:00:00,80.5,71.8,30.17,South,188,4.0,9.0,75,0.00,,,0.00,236,Wunderground v.1.15,2013-07-02 16:00:00,
2013-07-02 12:06:00,80.5,71.8,30.18,SSE,159,4.0,11.0,75,0.00,,,0.00,190,Wunderground v.1.15,2013-07-02 16:06:00,
2013-07-02 12:12:00,80.3,71.6,30.18,SSW,206,5.0,11.0,75,0.00,,,0.00,285,Wunderground v.1.15,2013-07-02 16:12:00,
2013-07-02 12:18:00,80.5,72.2,30.18,West,279,3.0,11.0,76,0.00,,,0.00,294,Wunderground v.1.15,2013-07-02 16:18:00,
2013-07-02 12:24:00,80.1,71.8,30.18,South,173,4.0,11.0,76,0.00,,,0.00,343,Wunderground v.1.15,2013-07-02 16:24:00,
2013-07-02 12:30:00,80.3,72.0,30.18,WSW,251,4.0,4.0,76,0.00,,,0.00,262,Wunderground v.1.15,2013-07-02 16:30:00,
2013-07-02 12:36:00,80.7,72.0,30.17,SSE,166,2.0,11.0,75,0.00,,,0.00,264,Wunderground v.1.15,2013-07-02 16:36:00,
2013-07-02 12:42:00,80.3,72.0,30.17,South,181,3.0,11.0,76,0.00,,,0.00,285,Wunderground v.1.15,2013-07-02 16:42:00,
2013-07-02 12:48:00,80.3,72.0,30.17,SSW,205,4.0,11.0,76,0.00,,,0.00,272,Wunderground v.1.15,2013-07-02 16:48:00,
2013-07-02 12:54:00,80.3,72.0,30.17,SE,143,4.0,11.0,76,0.00,,,0.00,239,Wunderground v.1.15,2013-07-02 16:54:00,
2013-07-02 13:00:00,80.3,72.8,30.17,SSW,199,2.0,11.0,78,0.00,,,0.00,338,Wunderground v.1.15,2013-07-02 17:00:00,
2013-07-02 13:06:00,80.3,72.8,30.17,South,184,3.0,11.0,78,0.00,,,0.00,359,Wunderground v.1.15,2013-07-02 17:06:00,
2013-07-02 13:12:00,80.3,72.8,30.17,South,190,3.0,7.0,78,0.00,,,0.00,371,Wunderground v.1.15,2013-07-02 17:12:00,
2013-07-02 13:18:00,80.3,72.8,30.17,SSW,200,4.0,8.0,78,0.00,,,0.00,383,Wunderground v.1.15,2013-07-02 17:18:00,
2013-07-02 13:24:00,80.3,72.8,30.17,SSW,213,4.0,9.0,78,0.00,,,0.00,332,Wunderground v.1.15,2013-07-02 17:24:00,
2013-07-02 13:30:00,80.3,72.0,30.17,SSW,211,4.0,4.0,76,0.00,,,0.00,418,Wunderground v.1.15,2013-07-02 17:30:00,
2013-07-02 13:36:00,80.5,72.2,30.17,South,180,5.0,10.0,76,0.00,,,0.00,439,Wunderground v.1.15,2013-07-02 17:36:00,
2013-07-02 13:42:00,80.7,72.0,30.17,SSW,194,4.0,5.0,75,0.00,,,0.00,325,Wunderground v.1.15,2013-07-02 17:42:00,
2013-07-02 13:48:00,80.7,72.0,30.17,SSW,212,4.0,9.0,75,0.00,,,0.00,283,Wunderground v.1.15,2013-07-02 17:48:00,
2013-07-02 13:54:00,80.7,72.0,30.17,SSW,199,4.0,8.0,75,0.00,,,0.00,313,Wunderground v.1.15,2013-07-02 17:54:00,
2013-07-02 14:00:00,80.9,72.6,30.17,South,169,2.0,2.0,76,0.00,,,0.00,338,Wunderground v.1.15,2013-07-02 18:00:00,
2013-07-02 14:06:00,81.2,71.7,30.17,South,171,1.0,5.0,73,0.00,,,0.00,352,Wunderground v.1.15,2013-07-02 18:06:00,
2013-07-02 14:12:00,81.2,71.3,30.17,SW,229,4.0,4.0,72,0.00,,,0.00,429,Wunderground v.1.15,2013-07-02 18:12:00,
2013-07-02 14:18:00,81.6,71.7,30.17,SSE,167,4.0,7.0,72,0.00,,,0.00,411,Wunderground v.1.15,2013-07-02 18:18:00,
2013-07-02 14:24:00,81.4,70.7,30.17,South,182,3.0,11.0,70,0.00,,,0.00,369,Wunderground v.1.15,2013-07-02 18:24:00,
2013-07-02 14:30:00,81.4,71.5,30.17,West,270,4.0,6.0,72,0.00,,,0.00,448,Wunderground v.1.15,2013-07-02 18:30:00,
2013-07-02 14:36:00,81.6,71.7,30.17,SSW,193,4.0,8.0,72,0.00,,,0.00,468,Wunderground v.1.15,2013-07-02 18:36:00,
2013-07-02 14:42:00,81.8,71.5,30.17,SSE,147,4.0,4.0,71,0.00,,,0.00,860,Wunderground v.1.15,2013-07-02 18:42:00,
2013-07-02 14:48:00,82.0,71.2,30.17,SSW,211,5.0,11.0,70,0.00,,,0.00,856,Wunderground v.1.15,2013-07-02 18:48:00,
2013-07-02 14:54:00,83.4,71.3,30.17,SSW,195,3.0,6.0,67,0.00,,,0.00,520,Wunderground v.1.15,2013-07-02 18:54:00,
2013-07-02 15:00:00,83.6,72.3,30.17,ESE,113,3.0,3.0,69,0.00,,,0.00,306,Wunderground v.1.15,2013-07-02 19:00:00,
2013-07-02 15:06:00,83.2,72.0,30.17,SSE,157,3.0,7.0,69,0.00,,,0.00,422,Wunderground v.1.15,2013-07-02 19:06:00,
2013-07-02 15:12:00,83.4,72.2,30.17,South,186,2.0,7.0,69,0.00,,,0.00,332,Wunderground v.1.15,2013-07-02 19:12:00,
2013-07-02 15:18:00,83.0,71.8,30.16,ESE,118,3.0,7.0,69,0.00,,,0.00,476,Wunderground v.1.15,2013-07-02 19:18:00,
2013-07-02 15:24:00,83.2,71.5,30.16,SSE,155,3.0,7.0,68,0.00,,,0.00,320,Wunderground v.1.15,2013-07-02 19:24:00,
2013-07-02 15:30:00,83.0,71.8,30.16,South,181,2.0,2.0,69,0.00,,,0.00,360,Wunderground v.1.15,2013-07-02 19:30:00,
2013-07-02 15:36:00,82.4,71.2,30.16,South,169,3.0,8.0,69,0.00,,,0.00,220,Wunderground v.1.15,2013-07-02 19:36:00,
2013-07-02 15:42:00,82.2,71.4,30.16,South,181,4.0,7.0,70,0.00,,,0.00,294,Wunderground v.1.15,2013-07-02 19:42:00,
2013-07-02 15:48:00,82.4,71.6,30.16,SSW,198,3.0,7.0,70,0.00,,,0.00,355,Wunderground v.1.15,2013-07-02 19:48:00,
2013-07-02 15:54:00,82.8,72.0,30.16,SSE,157,2.0,7.0,70,0.00,,,0.00,262,Wunderground v.1.15,2013-07-02 19:54:00,
2013-07-02 16:00:00,82.8,72.4,30.16,SSE,162,3.0,7.0,71,0.00,,,0.00,738,Wunderground v.1.15,2013-07-02 20:00:00,
2013-07-02 16:06:00,83.4,71.3,30.15,SSW,211,4.0,7.0,67,0.00,,,0.00,737,Wunderground v.1.15,2013-07-02 20:06:00,
2013-07-02 16:12:00,84.0,71.0,30.15,SSW,211,3.0,6.0,65,0.00,,,0.00,311,Wunderground v.1.15,2013-07-02 20:12:00,
2013-07-02 16:18:00,83.4,70.8,30.15,South,177,4.0,7.0,66,0.00,,,0.00,262,Wunderground v.1.15,2013-07-02 20:18:00,
2013-07-02 16:24:00,83.2,70.7,30.15,South,189,3.0,5.0,66,0.00,,,0.00,306,Wunderground v.1.15,2013-07-02 20:24:00,
2013-07-02 16:30:00,83.2,71.1,30.15,SSW,200,2.0,2.0,67,0.00,,,0.00,366,Wunderground v.1.15,2013-07-02 20:30:00,
2013-07-02 16:36:00,83.8,70.8,30.15,SSW,209,3.0,6.0,65,0.00,,,0.00,279,Wunderground v.1.15,2013-07-02 20:36:00,
2013-07-02 16:42:00,82.8,68.0,30.15,ESE,123,2.0,6.0,61,0.00,,,0.00,251,Wunderground v.1.15,2013-07-02 20:42:00,
2013-07-02 16:48:00,80.7,67.4,30.15,North,360,2.0,6.0,64,0.00,,,0.00,239,Wunderground v.1.15,2013-07-02 20:48:00,
2013-07-02 16:54:00,79.4,66.6,30.15,ENE,64,2.0,6.0,65,0.00,,,0.00,199,Wunderground v.1.15,2013-07-02 20:54:00,
2013-07-02 17:00:00,78.5,67.1,30.15,ESE,120,1.0,1.0,68,0.00,,,0.00,246,Wunderground v.1.15,2013-07-02 21:00:00,
2013-07-02 17:06:00,77.6,66.6,30.16,East,84,2.0,6.0,69,0.00,,,0.00,192,Wunderground v.1.15,2013-07-02 21:06:00,
2013-07-02 17:12:00,77.0,66.5,30.16,NE,42,2.0,5.0,70,0.00,,,0.00,288,Wunderground v.1.15,2013-07-02 21:12:00,
2013-07-02 17:18:00,76.7,65.8,30.17,ENE,60,3.0,6.0,69,0.00,,,0.00,654,Wunderground v.1.15,2013-07-02 21:18:00,
2013-07-02 17:24:00,75.8,65.7,30.17,NE,48,4.0,7.0,71,0.00,,,0.00,308,Wunderground v.1.15,2013-07-02 21:24:00,
2013-07-02 17:30:00,75.1,65.5,30.17,NE,49,4.0,4.0,72,0.00,,,0.00,225,Wunderground v.1.15,2013-07-02 21:30:00,
2013-07-02 17:36:00,75.1,65.5,30.17,NNE,31,3.0,5.0,72,0.00,,,0.00,163,Wunderground v.1.15,2013-07-02 21:36:00,
2013-07-02 17:42:00,74.2,65.0,30.17,ESE,123,3.0,7.0,73,0.00,,,0.00,167,Wunderground v.1.15,2013-07-02 21:42:00,
2013-07-02 17:48:00,73.3,64.5,30.18,NNE,22,3.0,9.0,74,0.00,,,0.00,471,Wunderground v.1.15,2013-07-02 21:48:00,
2013-07-02 17:54:00,72.7,65.1,30.18,ENE,59,5.0,7.0,77,0.00,,,0.00,146,Wunderground v.1.15,2013-07-02 21:54:00,
2013-07-02 18:00:00,72.7,65.1,30.18,NE,36,3.0,3.0,77,0.00,,,0.00,95,Wunderground v.1.15,2013-07-02 22:00:00,
2013-07-02 18:06:00,72.8,65.2,30.18,NE,47,1.0,5.0,77,0.00,,,0.00,127,Wunderground v.1.15,2013-07-02 22:06:00,
2013-07-02 18:12:00,72.8,64.8,30.18,SE,146,1.0,1.0,76,0.00,,,0.00,95,Wunderground v.1.15,2013-07-02 22:12:00,
2013-07-02 18:18:00,72.1,64.5,30.19,NE,55,2.0,4.0,77,0.00,,,0.00,60,Wunderground v.1.15,2013-07-02 22:18:00,
2013-07-02 18:24:00,71.3,64.4,30.19,NE,53,3.0,4.0,79,0.00,,,0.00,69,Wunderground v.1.15,2013-07-02 22:24:00,
2013-07-02 18:30:00,70.8,64.0,30.19,NNE,28,3.0,4.0,79,0.00,,,0.00,40,Wunderground v.1.15,2013-07-02 22:30:00,
2013-07-02 18:36:00,70.6,64.1,30.20,NNE,27,3.0,5.0,80,0.00,,,0.00,42,Wunderground v.1.15,2013-07-02 22:36:00,
2013-07-02 18:42:00,70.4,63.9,30.20,NE,52,1.0,2.0,80,0.00,,,0.00,63,Wunderground v.1.15,2013-07-02 22:42:00,
2013-07-02 18:48:00,70.4,63.9,30.19,NE,34,1.0,2.0,80,0.00,,,0.00,67,Wunderground v.1.15,2013-07-02 22:48:00,
2013-07-02 18:54:00,69.9,63.8,30.19,NNE,30,3.0,4.0,81,0.00,,,0.00,53,Wunderground v.1.15,2013-07-02 22:54:00,
2013-07-02 19:00:00,69.9,63.8,30.19,NNE,30,2.0,2.0,81,0.00,,,0.00,47,Wunderground v.1.15,2013-07-02 23:00:00,
2013-07-02 19:06:00,69.9,63.8,30.20,NE,38,1.0,2.0,81,0.00,,,0.00,127,Wunderground v.1.15,2013-07-02 23:06:00,
2013-07-02 19:12:00,69.9,63.4,30.20,SE,130,2.0,2.0,80,0.00,,,0.00,84,Wunderground v.1.15,2013-07-02 23:12:00,
2013-07-02 19:16:00,69.8,63.7,30.20,ESE,115,3.0,3.0,81,0.00,,,0.00,62,Wunderground v.1.15,2013-07-02 23:16:00,
2013-07-02 19:22:00,69.4,63.3,30.20,ENE,69,3.0,3.0,81,0.00,,,0.00,81,Wunderground v.1.15,2013-07-02 23:22:00,
2013-07-02 19:28:00,69.3,63.2,30.20,NE,34,2.0,3.0,81,0.00,,,0.00,49,Wunderground v.1.15,2013-07-02 23:28:00,
2013-07-02 19:30:00,69.1,63.0,30.20,ENE,59,2.0,5.0,81,0.00,,,0.00,37,Wunderground v.1.15,2013-07-02 23:30:00,
2013-07-02 19:36:00,68.4,62.7,30.21,NE,48,3.0,5.0,82,0.00,,,0.00,26,Wunderground v.1.15,2013-07-02 23:36:00,
2013-07-02 19:42:00,67.9,62.5,30.21,NE,34,2.0,5.0,83,0.00,,,0.00,23,Wunderground v.1.15,2013-07-02 23:42:00,
2013-07-02 19:48:00,67.8,63.1,30.21,NNE,15,2.0,5.0,85,0.00,,,0.00,21,Wunderground v.1.15,2013-07-02 23:48:00,
2013-07-02 19:54:00,67.8,63.1,30.21,ENE,60,2.0,2.0,85,0.00,,,0.00,25,Wunderground v.1.15,2013-07-02 23:54:00,
2013-07-02 20:00:00,67.8,63.1,30.21,ESE,105,1.0,1.0,85,0.00,,,0.00,32,Wunderground v.1.15,2013-07-03 00:00:00,
2013-07-02 20:06:00,67.8,63.1,30.21,East,86,1.0,4.0,85,0.00,,,0.00,28,Wunderground v.1.15,2013-07-03 00:06:00,
2013-07-02 20:08:00,67.6,62.6,30.21,NNE,26,2.0,4.0,84,0.00,,,0.00,18,Wunderground v.1.15,2013-07-03 00:08:00,
2013-07-02 20:14:00,67.4,63.1,30.21,South,175,2.0,4.0,86,0.00,,,0.00,9,Wunderground v.1.15,2013-07-03 00:14:00,
2013-07-02 20:20:00,67.1,62.8,30.21,ENE,59,1.0,5.0,86,0.00,,,0.00,5,Wunderground v.1.15,2013-07-03 00:20:00,
2013-07-02 20:24:00,66.9,62.6,30.21,ENE,78,1.0,5.0,86,0.00,,,0.00,0,Wunderground v.1.15,2013-07-03 00:24:00,
2013-07-02 20:30:00,66.8,62.5,30.21,ENE,65,1.0,1.0,86,0.00,,,0.00,0,Wunderground v.1.15,2013-07-03 00:30:00,
2013-07-02 20:34:00,66.6,62.6,30.21,NNW,329,1.0,4.0,87,0.00,,,0.00,0,Wunderground v.1.15,2013-07-03 00:34:00,
2013-07-02 20:40:00,66.4,62.4,30.21,ESE,103,0.0,4.0,87,0.00,,,0.00,0,Wunderground v.1.15,2013-07-03 00:40:00,
2013-07-02 20:46:00,66.4,62.4,30.21,NNE,13,0.0,4.0,87,0.00,,,0.00,0,Wunderground v.1.15,2013-07-03 00:46:00,
2013-07-02 20:52:00,66.4,62.4,30.22,NE,44,1.0,4.0,87,0.00,,,0.00,0,Wunderground v.1.15,2013-07-03 00:52:00,
2013-07-02 20:58:00,66.4,62.1,30.22,NE,44,0.0,4.0,86,0.00,,,0.00,0,Wunderground v.1.15,2013-07-03 00:58:00,
2013-07-02 21:04:00,66.3,62.3,30.23,NE,44,0.0,4.0,87,0.00,,,0.00,0,Wunderground v.1.15,2013-07-03 01:04:00,
2013-07-02 21:08:00,66.1,62.1,30.23,NE,44,1.0,4.0,87,0.00,,,0.00,0,Wunderground v.1.15,2013-07-03 01:08:00,
2013-07-02 21:14:00,66.1,62.1,30.23,NE,44,0.0,2.0,87,0.00,,,0.00,0,Wunderground v.1.15,2013-07-03 01:14:00,
2013-07-02 21:18:00,66.1,61.8,30.23,NE,44,0.0,2.0,86,0.00,,,0.00,0,Wunderground v.1.15,2013-07-03 01:18:00,
2013-07-02 21:24:00,66.1,61.8,30.23,NE,45,0.0,2.0,86,0.00,,,0.00,0,Wunderground v.1.15,2013-07-03 01:24:00,
2013-07-02 21:30:00,66.0,61.7,30.23,NE,45,1.0,1.0,86,0.00,,,0.00,0,Wunderground v.1.15,2013-07-03 01:30:00,
2013-07-02 21:32:00,66.0,61.7,30.23,NE,45,1.0,2.0,86,0.00,,,0.00,0,Wunderground v.1.15,2013-07-03 01:32:00,
2013-07-02 21:38:00,65.8,61.8,30.23,NE,45,0.0,2.0,87,0.00,,,0.00,0,Wunderground v.1.15,2013-07-03 01:38:00,
2013-07-02 21:44:00,65.6,61.6,30.23,NE,45,0.0,2.0,87,0.00,,,0.00,0,Wunderground v.1.15,2013-07-03 01:44:00,
2013-07-02 21:50:00,65.5,61.9,30.24,NE,45,1.0,4.0,88,0.00,,,0.00,0,Wunderground v.1.15,2013-07-03 01:50:00,
2013-07-02 21:56:00,65.3,61.7,30.24,NE,44,1.0,4.0,88,0.00,,,0.00,0,Wunderground v.1.15,2013-07-03 01:56:00,
2013-07-02 22:00:00,65.3,61.7,30.24,NE,45,1.0,1.0,88,0.00,,,0.00,0,Wunderground v.1.15,2013-07-03 02:00:00,
2013-07-02 22:06:00,65.2,61.6,30.24,NE,45,1.0,5.0,88,0.00,,,0.00,0,Wunderground v.1.15,2013-07-03 02:06:00,
2013-07-02 22:12:00,65.0,61.7,30.24,NE,44,1.0,5.0,89,0.00,,,0.00,0,Wunderground v.1.15,2013-07-03 02:12:00,
2013-07-02 22:18:00,64.8,61.5,30.25,NE,44,1.0,5.0,89,0.00,,,0.00,0,Wunderground v.1.15,2013-07-03 02:18:00,
2013-07-02 22:24:00,64.7,61.4,30.25,NE,44,1.0,6.0,89,0.00,,,0.00,0,Wunderground v.1.15,2013-07-03 02:24:00,
2013-07-02 22:30:00,64.5,61.2,30.25,NE,43,2.0,2.0,89,0.00,,,0.00,0,Wunderground v.1.15,2013-07-03 02:30:00,
2013-07-02 22:38:00,64.3,61.0,30.24,NE,43,0.0,4.0,89,0.00,,,0.00,0,Wunderground v.1.15,2013-07-03 02:38:00,
2013-07-02 22:44:00,64.2,60.9,30.24,NE,43,1.0,4.0,89,0.00,,,0.00,0,Wunderground v.1.15,2013-07-03 02:44:00,
2013-07-02 22:46:00,64.2,60.9,30.24,NE,43,1.0,4.0,89,0.00,,,0.00,0,Wunderground v.1.15,2013-07-03 02:46:00,
2013-07-02 22:52:00,63.9,60.9,30.23,NE,43,1.0,4.0,90,0.00,,,0.00,0,Wunderground v.1.15,2013-07-03 02:52:00,
2013-07-02 22:58:00,63.7,60.7,30.23,NE,42,2.0,4.0,90,0.00,,,0.00,0,Wunderground v.1.15,2013-07-03 02:58:00,
2013-07-02 23:04:00,63.5,60.8,30.23,NE,42,1.0,4.0,91,0.00,,,0.00,0,Wunderground v.1.15,2013-07-03 03:04:00,
2013-07-02 23:10:00,63.5,60.8,30.23,NE,42,0.0,1.0,91,0.00,,,0.00,0,Wunderground v.1.15,2013-07-03 03:10:00,
2013-07-02 23:16:00,63.4,60.7,30.23,NE,42,1.0,1.0,91,0.00,,,0.00,0,Wunderground v.1.15,2013-07-03 03:16:00,
2013-07-02 23:20:00,63.4,60.7,30.23,NE,42,1.0,1.0,91,0.00,,,0.00,0,Wunderground v.1.15,2013-07-03 03:20:00,
2013-07-02 23:26:00,63.4,60.7,30.23,NE,43,1.0,1.0,91,0.00,,,0.00,0,Wunderground v.1.15,2013-07-03 03:26:00,
2013-07-02 23:32:00,63.2,60.5,30.23,NE,43,1.0,1.0,91,0.00,,,0.00,0,Wunderground v.1.15,2013-07-03 03:32:00,
2013-07-02 23:38:00,63.2,60.8,30.23,NE,43,1.0,1.0,92,0.00,,,0.00,0,Wunderground v.1.15,2013-07-03 03:38:00,
2013-07-02 23:44:00,63.2,60.8,30.23,NE,43,1.0,4.0,92,0.00,,,0.00,0,Wunderground v.1.15,2013-07-03 03:44:00,
2013-07-02 23:46:00,63.2,60.8,30.23,NE,42,1.0,4.0,92,0.00,,,0.00,0,Wunderground v.1.15,2013-07-03 03:46:00,
2013-07-02 23:52:00,63.2,60.8,30.23,NE,43,1.0,2.0,92,0.00,,,0.00,0,Wunderground v.1.15,2013-07-03 03:52:00,
2013-07-02 23:58:00,63.1,60.7,30.23,NE,43,2.0,5.0,92,0.00,,,0.00,0,Wunderground v.1.15,2013-07-03 03:58:00,